| time (UTC) | temp F | wind direction | speed MPH | gust MPH | rain 1hr in | rain 24hr in | rain mn in | humidity % | barometer mb |
| 20260906190103 | 60 | 311 | 2.0 | 3.0 | 0.03 | 0.12 | 0.11 | 91 | 1011.5 |
| 20260906184539 | 61 | 306 | 1.0 | 3.0 | 0.02 | 0.11 | 0.10 | 91 | 1011.5 |
| 20260906183042 | 61 | 297 | 1.0 | 3.0 | 0.02 | 0.11 | 0.10 | 89 | 1011.4 |
| 20260906181519 | 62 | 302 | 1.0 | 4.0 | 0.02 | 0.10 | 0.09 | 88 | 1011.6 |
| 20260906180015 | 63 | 304 | 0.0 | 2.0 | 0.01 | 0.09 | 0.08 | 88 | 1011.5 |
| 20260906174558 | 63 | 295 | 0.0 | 2.0 | 0.01 | 0.09 | 0.08 | 88 | 1011.5 |
| 20260906173101 | 64 | 295 | 0.0 | 2.0 | 0.01 | 0.09 | 0.08 | 86 | 1011.5 |
| 20260906171539 | 64 | 275 | 0.0 | 1.0 | 0.01 | 0.08 | 0.07 | 85 | 1011.4 |
| 20260906170033 | 63 | 300 | 0.0 | 0.0 | 0.01 | 0.08 | 0.07 | 86 | 1011.2 |
| 20260906164510 | 63 | 300 | 0.0 | 0.0 | 0.01 | 0.08 | 0.07 | 87 | 1011.0 |
| 20260906163007 | 63 | 299 | 0.0 | 0.0 | 0.01 | 0.08 | 0.07 | 87 | 1010.9 |
| 20260906161547 | 63 | 300 | 0.0 | 2.0 | 0.00 | 0.07 | 0.06 | 87 | 1010.9 |
| 20260906160047 | 62 | 301 | 1.0 | 2.0 | 0.00 | 0.07 | 0.06 | 88 | 1010.8 |
| 20260906154530 | 62 | 301 | 0.0 | 2.0 | 0.00 | 0.07 | 0.06 | 87 | 1010.7 |
| 20260906153029 | 63 | 289 | 1.0 | 2.0 | 0.00 | 0.07 | 0.06 | 85 | 1010.7 |
| 20260906151509 | 63 | 288 | 0.0 | 0.0 | 0.00 | 0.07 | 0.06 | 83 | 1010.7 |
| 20260906150007 | 63 | 285 | 0.0 | 2.0 | 0.00 | 0.07 | 0.06 | 83 | 1010.7 |
| 20260906144549 | 63 | 285 | 0.0 | 1.0 | 0.00 | 0.07 | 0.06 | 84 | 1010.5 |
| 20260906143047 | 62 | 285 | 0.0 | 3.0 | 0.00 | 0.07 | 0.06 | 84 | 1010.4 |
| 20260906141529 | 62 | 289 | 0.0 | 2.0 | 0.00 | 0.07 | 0.06 | 83 | 1010.3 |
| 20260906140029 | 62 | 288 | 0.0 | 3.0 | 0.00 | 0.07 | 0.06 | 84 | 1010.1 |
| 20260906134511 | 62 | 274 | 0.0 | 1.0 | 0.00 | 0.07 | 0.06 | 84 | 1010.1 |
| 20260906133009 | 61 | 253 | 0.0 | 0.0 | 0.00 | 0.07 | 0.06 | 85 | 1010.0 |
| 20260906131550 | 61 | 235 | 0.0 | 2.0 | 0.00 | 0.07 | 0.06 | 86 | 1009.9 |
| 20260906124537 | 61 | 191 | 0.0 | 1.0 | 0.01 | 0.07 | 0.06 | 85 | 1009.7 |
| 20260906123036 | 61 | 282 | 0.0 | 1.0 | 0.01 | 0.07 | 0.06 | 85 | 1009.7 |
| 20260906121510 | 61 | 283 | 0.0 | 1.0 | 0.01 | 0.07 | 0.06 | 85 | 1009.6 |
| 20260906120013 | 61 | 283 | 0.0 | 2.0 | 0.01 | 0.07 | 0.06 | 86 | 1009.8 |
| 20260906114552 | 61 | 282 | 0.0 | 1.0 | 0.00 | 0.06 | 0.05 | 86 | 1009.8 |
| 20260906113055 | 61 | 282 | 0.0 | 2.0 | 0.01 | 0.06 | 0.05 | 87 | 1009.9 |
| 20260906111538 | 61 | 281 | 0.0 | 1.0 | 0.01 | 0.06 | 0.05 | 88 | 1010.1 |
| 20260906110037 | 60 | 281 | 0.0 | 2.0 | 0.03 | 0.06 | 0.05 | 89 | 1010.2 |
| 20260906104538 | 60 | 280 | 0.0 | 1.0 | 0.03 | 0.06 | 0.05 | 90 | 1010.0 |
| 20260906103046 | 60 | 259 | 0.0 | 1.0 | 0.03 | 0.05 | 0.04 | 88 | 1010.0 |
| 20260906101533 | 60 | 262 | 0.0 | 3.0 | 0.03 | 0.05 | 0.04 | 88 | 1009.9 |
| 20260906100035 | 61 | 278 | 0.0 | 0.0 | 0.01 | 0.03 | 0.02 | 88 | 1010.0 |
| 20260906094530 | 61 | 278 | 0.0 | 0.0 | 0.02 | 0.03 | 0.02 | 88 | 1010.0 |
| 20260906093027 | 61 | 278 | 0.0 | 1.0 | 0.01 | 0.02 | 0.01 | 87 | 1010.1 |
| 20260906091511 | 61 | 288 | 0.0 | 2.0 | 0.01 | 0.02 | 0.01 | 87 | 1010.2 |
| 20260906090008 | 61 | 228 | 0.0 | 1.0 | 0.02 | 0.02 | 0.01 | 87 | 1010.2 |
| 20260906084550 | 61 | 226 | 0.0 | 1.0 | 0.01 | 0.01 | 0.00 | 86 | 1010.3 |
| 20260906083047 | 62 | 226 | 0.0 | 0.0 | 0.01 | 0.01 | 0.00 | 86 | 1010.5 |
| 20260906081526 | 63 | 226 | 0.0 | 0.0 | 0.01 | 0.01 | 0.01 | 83 | 1010.6 |
| 20260906080028 | 63 | 226 | 0.0 | 1.0 | 0.00 | 0.00 | 0.00 | 78 | 1010.7 |
| 20260906074507 | 64 | 195 | 0.0 | 1.0 | 0.00 | 0.00 | 0.00 | 78 | 1010.9 |
| 20260906073006 | 64 | 266 | 0.0 | 0.0 | 0.00 | 0.00 | 0.00 | 79 | 1010.8 |
| 20260906071549 | 64 | 266 | 0.0 | 0.0 | 0.00 | 0.00 | 0.00 | 78 | 1010.9 |
| 20260906070047 | 64 | 266 | 0.0 | 1.0 | 0.00 | 0.00 | 0.00 | 77 | 1010.9 |
| 20260906064537 | 64 | 266 | 0.0 | 1.0 | 0.00 | 0.00 | 0.00 | 77 | 1010.9 |
| 20260906063033 | 64 | 267 | 0.0 | 0.0 | 0.00 | 0.00 | 0.00 | 77 | 1010.9 |
| 20260906061533 | 64 | 270 | 0.0 | 1.0 | 0.00 | 0.00 | 0.00 | 77 | 1010.8 |
| 20260906060030 | 65 | 266 | 0.0 | 0.0 | 0.00 | 0.00 | 0.00 | 77 | 1010.9 |
| 20260906054536 | 65 | 264 | 0.0 | 0.0 | 0.00 | 0.00 | 0.00 | 77 | 1011.1 |
| 20260906053028 | 65 | 264 | 0.0 | 0.0 | 0.00 | 0.00 | 0.00 | 76 | 1011.1 |
| 20260906051528 | 65 | 274 | 0.0 | 0.0 | 0.00 | 0.00 | 0.00 | 76 | 1011.3 |
| 20260906050027 | 65 | 274 | 0.0 | 0.0 | 0.00 | 0.00 | 0.00 | 75 | 1011.4 |
| 20260906044509 | 65 | 274 | 0.0 | 0.0 | 0.00 | 0.00 | 0.00 | 74 | 1011.5 |
| 20260906043019 | 65 | 273 | 0.0 | 0.0 | 0.00 | 0.00 | 0.00 | 74 | 1011.5 |
| 20260906041550 | 64 | 273 | 0.0 | 0.0 | 0.00 | 0.00 | 0.00 | 73 | 1011.5 |
| 20260906040049 | 64 | 273 | 0.0 | 1.0 | 0.00 | 0.00 | 0.00 | 72 | 1011.6 |
| 20260906034532 | 64 | 266 | 0.0 | 1.0 | 0.00 | 0.00 | 0.00 | 69 | 1011.6 |
| 20260906033031 | 64 | 238 | 0.0 | 0.0 | 0.00 | 0.00 | 0.00 | 71 | 1011.6 |
| 20260906031512 | 64 | 181 | 0.0 | 0.0 | 0.00 | 0.00 | 0.00 | 65 | 1011.4 |
| 20260906030012 | 63 | 177 | 0.0 | 0.0 | 0.00 | 0.00 | 0.00 | 64 | 1011.2 |
| 20260906024553 | 63 | 177 | 0.0 | 0.0 | 0.00 | 0.00 | 0.00 | 62 | 1011.1 |
| 20260906023153 | 64 | 177 | 0.0 | 1.0 | 0.00 | 0.00 | 0.00 | 61 | 1011.2 |
| 20260906021542 | 65 | 174 | 0.0 | 2.0 | 0.00 | 0.00 | 0.00 | 59 | 1011.1 |
| 20260906020033 | 65 | 200 | 1.0 | 3.0 | 0.00 | 0.00 | 0.00 | 58 | 1011.2 |
| 20260906014517 | 66 | 195 | 0.0 | 3.0 | 0.00 | 0.00 | 0.00 | 57 | 1011.3 |
| 20260906013120 | 67 | 200 | 2.0 | 4.0 | 0.00 | 0.00 | 0.00 | 56 | 1011.3 |
| 20260906011604 | 68 | 222 | 2.0 | 6.0 | 0.00 | 0.00 | 0.00 | 55 | 1011.4 |
| 20260906010054 | 68 | 190 | 1.0 | 5.0 | 0.00 | 0.00 | 0.00 | 54 | 1011.4 |
| 20260906004535 | 69 | 195 | 2.0 | 6.0 | 0.00 | 0.00 | 0.00 | 51 | 1011.4 |
| 20260906003036 | 70 | 188 | 3.0 | 5.0 | 0.00 | 0.00 | 0.00 | 51 | 1011.5 |
| 20260906001532 | 70 | 165 | 3.0 | 6.0 | 0.00 | 0.00 | 0.00 | 50 | 1011.6 |
| 20260906000034 | 70 | 172 | 2.0 | 8.0 | 0.00 | 0.00 | 0.00 | 50 | 1011.6 |
| 20260905234532 | 71 | 176 | 1.0 | 6.0 | 0.00 | 0.00 | 0.00 | 51 | 1011.5 |
| 20260905233031 | 71 | 184 | 3.0 | 7.0 | 0.00 | 0.00 | 0.00 | 49 | 1011.7 |
| 20260905231528 | 71 | 221 | 3.0 | 10.0 | 0.00 | 0.00 | 0.00 | 47 | 1011.6 |
| 20260905230027 | 72 | 160 | 3.0 | 10.0 | 0.00 | 0.00 | 0.00 | 45 | 1011.7 |
| 20260905224513 | 73 | 190 | 2.0 | 7.0 | 0.00 | 0.00 | 0.00 | 45 | 1011.9 |
| 20260905223003 | 72 | 217 | 2.0 | 11.0 | 0.00 | 0.00 | 0.00 | 48 | 1012.0 |
| 20260905221539 | 72 | 219 | 4.0 | 9.0 | 0.00 | 0.00 | 0.00 | 46 | 1012.1 |
| 20260905220036 | 72 | 210 | 1.0 | 8.0 | 0.00 | 0.00 | 0.00 | 44 | 1012.3 |
| 20260905214517 | 72 | 188 | 2.0 | 9.0 | 0.00 | 0.00 | 0.00 | 42 | 1012.7 |
| 20260905213015 | 73 | 224 | 2.0 | 9.0 | 0.00 | 0.00 | 0.00 | 44 | 1012.7 |
| 20260905211507 | 71 | 204 | 3.0 | 6.0 | 0.00 | 0.00 | 0.00 | 43 | 1013.0 |
| 20260905210004 | 72 | 195 | 3.0 | 9.0 | 0.00 | 0.00 | 0.00 | 38 | 1013.0 |
| 20260905204502 | 72 | 191 | 3.0 | 7.0 | 0.00 | 0.00 | 0.00 | 40 | 1013.2 |
| 20260905203001 | 72 | 224 | 3.0 | 8.0 | 0.00 | 0.00 | 0.00 | 38 | 1013.2 |
| 20260905201520 | 72 | 158 | 3.0 | 7.0 | 0.00 | 0.00 | 0.00 | 43 | 1013.3 |
| 20260905200024 | 70 | 197 | 4.0 | 8.0 | 0.00 | 0.00 | 0.00 | 46 | 1013.3 |
| 20260905194515 | 70 | 190 | 3.0 | 5.0 | 0.00 | 0.00 | 0.00 | 34 | 1013.6 |
| 20260905193014 | 70 | 169 | 3.0 | 8.0 | 0.00 | 0.00 | 0.00 | 35 | 1013.8 |